FW4685 Weather Reports


time (UTC)temp
C
wind
direction
speed
KPH
gust
KPH
rain 1hr
cm
rain 24hr
cm
rain mn
cm
humidity
%
barometer
mb
20260505184032 15 25 1.6 11.3 0.00 0.00 0.00 64 1013.1
20260505183031 15 26 3.2 16.1 0.00 0.00 0.00 65 1012.9
20260505182032 15 31 3.2 16.1 0.00 0.00 0.00 65 1013.0
20260505181020 15 7 1.6 11.3 0.00 0.00 0.00 66 1012.9
20260505180023 15 357 1.6 11.3 0.00 0.00 0.00 66 1013.1
20260505175024 15 6 1.6 8.0 0.00 0.00 0.00 65 1012.9
20260505174044 15 15 1.6 11.3 0.00 0.00 0.00 66 1012.8
20260505173024 15 336 0.0 8.0 0.00 0.00 0.00 65 1012.9
20260505172027 15 22 1.6 11.3 0.00 0.00 0.00 66 1013.1
20260505171048 15 16 0.0 8.0 0.00 0.00 0.00 65 1013.1
20260505170027 15 36 0.0 8.0 0.00 0.00 0.00 65 1013.1
20260505165027 15 13 1.6 8.0 0.00 0.00 0.00 63 1013.0
20260505164027 16 26 1.6 11.3 0.00 0.00 0.00 64 1013.1
20260505163027 16 13 1.6 8.0 0.00 0.00 0.00 63 1013.1
20260505162026 16 16 1.6 8.0 0.00 0.00 0.00 62 1013.2
20260505161048 16 17 1.6 11.3 0.00 0.00 0.00 61 1013.1
20260505153032 16 346 1.6 11.3 0.00 0.00 0.00 59 1013.2
20260505152019 16 6 0.0 8.0 0.00 0.00 0.00 61 1013.2
20260505151039 16 41 0.0 8.0 0.00 0.00 0.00 60 1013.4
20260505125028 16 16 4.8 11.3 0.00 0.00 0.00 61 1013.9
20260505124028 16 23 1.6 11.3 0.00 0.00 0.00 60 1013.9
20260505123038 16 26 1.6 11.3 0.00 0.00 0.00 60 1013.9
20260505122022 16 14 1.6 16.1 0.00 0.00 0.00 59 1013.9
20260505121024 16 30 3.2 11.3 0.00 0.00 0.00 59 1014.1
20260505120027 16 54 0.0 3.2 0.00 0.00 0.00 63 1014.0
20260505115049 16 17 1.6 8.0 0.00 0.00 0.00 62 1014.0
20260505114032 15 24 1.6 8.0 0.00 0.00 0.00 63 1014.1
20260505113019 15 21 1.6 11.3 0.00 0.00 0.00 64 1014.2
20260505112040 15 17 1.6 16.1 0.00 0.00 0.00 64 1014.2
20260505111019 15 337 1.6 16.1 0.00 0.00 0.00 65 1014.3
20260505102026 13 24 1.6 11.3 0.00 0.00 0.00 74 1014.7
20260505101028 12 23 1.6 8.0 0.00 0.00 0.00 75 1014.8
20260505100027 12 29 1.6 11.3 0.00 0.00 0.00 76 1014.9
20260505095051 12 9 3.2 19.3 0.00 0.00 0.00 79 1014.9
20260505094019 12 25 3.2 19.3 0.00 0.00 0.00 80 1014.9
20260505093023 12 26 1.6 11.3 0.00 0.00 0.00 80 1015.0
20260505092043 12 26 4.8 11.3 0.00 0.00 0.00 80 1015.0
20260505091024 12 14 3.2 11.3 0.00 0.00 0.00 80 1015.0
20260505090024 12 28 1.6 16.1 0.00 0.00 0.00 80 1015.0
20260505085029 12 35 1.6 11.3 0.00 0.00 0.00 80 1015.1
20260505084052 12 14 1.6 11.3 0.00 0.00 0.00 80 1015.0
20260505083018 12 20 3.2 16.1 0.00 0.00 0.00 80 1015.2
20260505082038 12 28 1.6 11.3 0.00 0.00 0.00 82 1015.1
20260505081020 12 353 0.0 8.0 0.00 0.00 0.00 84 1015.0
20260505080019 11 3 1.6 11.3 0.00 0.00 0.00 84 1015.1
20260505075021 11 356 0.0 3.2 0.00 0.00 0.00 84 1015.0
20260505074023 11 8 3.2 11.3 0.00 0.00 0.00 84 1015.1
20260505073027 11 30 1.6 8.0 0.00 0.00 0.00 84 1015.0
20260505072027 11 15 1.6 11.3 0.00 0.00 0.00 85 1015.1
20260505071031 11 20 0.0 8.0 0.00 0.00 0.00 85 1015.0
20260505070052 11 23 0.0 8.0 0.00 0.00 0.00 85 1015.1
20260505065048 11 32 1.6 8.0 0.00 0.00 0.00 85 1015.2
20260505064032 11 30 3.2 11.3 0.00 0.00 0.00 85 1015.3
20260505063032 11 25 1.6 8.0 0.00 0.00 0.00 85 1015.2
20260505062018 11 25 1.6 8.0 0.00 0.00 0.00 86 1015.2
20260505061018 11 25 1.6 8.0 0.00 0.00 0.00 86 1015.1
20260505060020 11 43 0.0 0.0 0.00 0.00 0.00 88 1014.9
20260505055024 11 34 1.6 8.0 0.00 0.00 0.00 88 1015.1
20260505054024 11 26 1.6 8.0 0.00 0.00 0.00 89 1015.0
20260505053024 11 20 1.6 11.3 0.00 0.00 0.00 89 1015.2
20260505052023 11 20 0.0 3.2 0.00 0.00 0.00 89 1015.1
20260505051023 11 20 0.0 8.0 0.00 0.00 0.00 89 1015.2
20260505041019 11 29 0.0 3.2 0.00 0.00 0.00 90 1015.2
20260505040022 11 15 0.0 0.0 0.00 0.00 0.00 89 1015.2
20260505035026 11 17 0.0 0.0 0.00 0.00 0.00 89 1015.3
20260505034027 11 57 0.0 0.0 0.00 0.00 0.00 89 1015.3
20260505033033 11 19 0.0 3.2 0.00 0.00 0.00 89 1015.4
20260505032032 11 74 0.0 3.2 0.00 0.00 0.00 88 1015.3
20260505031018 11 41 0.0 3.2 0.00 0.00 0.00 88 1015.4
20260505030022 12 20 1.6 8.0 0.00 0.00 0.00 88 1015.4
20260505025046 12 32 0.0 3.2 0.00 0.00 0.00 88 1015.4
20260505024027 12 35 0.0 8.0 0.00 0.00 0.00 88 1015.2
20260505023026 12 9 0.0 3.2 0.00 0.00 0.00 88 1015.3
20260505022026 12 34 1.6 11.3 0.00 0.00 0.00 88 1015.4
20260505021050 12 63 0.0 3.2 0.00 0.00 0.00 87 1015.4
20260505020019 12 76 0.0 3.2 0.00 0.00 0.00 86 1015.4
20260505015020 12 26 0.0 3.2 0.00 0.00 0.00 85 1015.4
20260505014023 12 23 0.0 8.0 0.00 0.00 0.00 85 1015.7
20260505013025 12 26 1.6 8.0 0.00 0.00 0.00 85 1015.7
20260505012049 12 28 1.6 8.0 0.00 0.00 0.00 85 1015.7
20260505011053 12 23 0.0 3.2 0.00 0.00 0.00 85 1015.9
20260505010020 12 33 0.0 3.2 0.00 0.00 0.00 85 1015.9
20260505005023 12 17 1.6 8.0 0.00 0.00 0.00 84 1016.0
20260505004023 12 26 0.0 3.2 0.00 0.00 0.00 84 1016.0
20260505003024 12 30 1.6 8.0 0.00 0.00 0.00 84 1016.0
20260505002022 12 26 1.6 8.0 0.00 0.00 0.00 83 1016.1
20260505001023 12 23 0.0 8.0 0.00 0.00 0.00 83 1016.2
20260505000027 12 20 1.6 11.3 0.00 0.00 0.00 83 1016.2
20260504235028 12 20 3.2 11.3 0.00 0.00 0.00 83 1016.2
20260504234031 12 34 3.2 16.1 0.00 0.00 0.00 82 1016.3
20260504233017 12 30 3.2 11.3 0.00 0.00 0.00 82 1016.3
20260504232020 12 20 1.6 8.0 0.00 0.00 0.00 82 1016.3
20260504231023 13 7 0.0 8.0 0.00 0.00 0.00 82 1016.4
20260504230023 13 27 1.6 8.0 0.00 0.00 0.00 82 1016.4
20260504225028 13 21 1.6 11.3 0.00 0.00 0.00 81 1016.4
20260504224031 13 27 3.2 11.3 0.00 0.00 0.00 81 1016.3
20260504223017 13 32 1.6 11.3 0.00 0.00 0.00 82 1016.4
20260504222018 13 21 3.2 19.3 0.00 0.00 0.00 82 1016.5
20260504221019 13 20 3.2 11.3 0.00 0.00 0.00 81 1016.5
20260504220022 13 31 3.2 11.3 0.00 0.00 0.00 81 1016.6
20260504215024 13 26 1.6 8.0 0.00 0.00 0.00 81 1016.5
20260504214026 13 29 0.0 8.0 0.00 0.00 0.00 81 1016.6
20260504213027 13 26 1.6 11.3 0.00 0.00 0.00 81 1016.5
20260504212026 14 22 1.6 8.0 0.00 0.00 0.00 81 1016.5
20260504211030 14 22 1.6 8.0 0.00 0.00 0.00 81 1016.4
20260504210031 14 26 1.6 8.0 0.00 0.00 0.00 80 1016.5
20260504205018 14 24 1.6 8.0 0.00 0.00 0.00 80 1016.4
20260504204022 14 22 0.0 8.0 0.00 0.00 0.00 80 1016.4
20260504203026 14 23 0.0 3.2 0.00 0.00 0.00 80 1016.4
20260504202029 13 25 1.6 8.0 0.00 0.00 0.00 81 1016.4
20260504201030 13 17 0.0 0.0 0.00 0.00 0.00 81 1016.4
20260504200038 14 31 0.0 3.2 0.00 0.00 0.00 81 1016.3
20260504195019 14 13 0.0 0.0 0.00 0.00 0.00 81 1016.2
20260504194023 14 25 0.0 3.2 0.00 0.00 0.00 80 1016.0
20260504193043 14 13 0.0 3.2 0.00 0.00 0.00 79 1016.1
20260504192023 14 24 1.6 8.0 0.00 0.00 0.00 79 1016.0
20260504191047 14 21 1.6 8.0 0.00 0.00 0.00 80 1016.0
20260504190028 14 53 0.0 3.2 0.00 0.00 0.00 80 1015.9
20260504185027 14 34 0.0 8.0 0.00 0.00 0.00 79 1015.9